781  
ASUS43 KGLD 231059  
RWRGLD  
 
GOODLAND FORECAST AREA HOURLY WEATHER ROUNDUP  
NATIONAL WEATHER SERVICE GOODLAND KS  
500 AM MDT SAT MAR 23 2019  
   
..OFFICIAL OBSERVATIONS
 
 
 
CITY SKY/WX TMP DP RH WIND PRES REMARKS
 
GOODLAND KS CLOUDY 42 42 100 SE9 29.83S FOG  
HILL CITY KS CLOUDY 45 42 89 SE8 29.93S  
IMPERIAL NEB CLOUDY 42 38 85 E14 29.87S  
MCCOOK NEB CLOUDY 44 41 89 SE15 29.90F  
AKRON CO CLOUDY 37 37 100 E8 29.84R  
BURLINGTON CO LGT RAIN 40 39 97 SE3 29.81F FOG  
LIMON CO LGT SNOW 33 32 96 NW26G36 29.83R FOG WCI 20  

 
   
..UNOFFICIAL OBSERVATIONS
 
 
 
CITY SKY/WX TMP DP RH WIND PRES REMARKS
 
COLBY KS CLOUDY 43 43 100 SE15 29.88R FOG  
SHARON SPRINGS N/A 40 37 90 S14G25 N/A  
KIT CARSON CO N/A 37 26 64 MISG N/A  
YUMA CO LGT RAIN 36 36 100 E7 29.83S  

 
 
 
CLICK HERE TO GO TO PREVIOUS BULLETINS.

The Nexlab KS Page
The Nexlab CO Page
The Nexlab NE Page Main Text Page